GFSMW_925_spd_000.txt.gz
Wind_Speed
23 24 18 13 9 9 2 12 18 10 6 5 4 8 10 11 10 10 10 13 13 13 17 21 19 20 22 21 22 25 27 27 26 28 25 26 28 28 30 34 35 34 35
14 16 14 13 16 16 23 17 16 10 9 7 9 8 8 5 8 11 16 15 19 22 25 21 18 16 18 21 23 24 27 28 28 25 23 11 21 24 25 30 32 37 35
12 11 17 18 18 20 19 20 17 14 12 10 10 9 8 9 10 13 17 21 28 25 19 17 18 18 16 19 23 24 23 20 25 23 19 10 11 17 23 27 30 31 29
10 12 18 16 18 19 19 16 12 10 8 8 3 3 1 3 8 10 20 21 13 16 15 18 19 20 17 19 22 20 22 21 21 19 15 20 20 4 8 13 22 25 24
11 11 14 15 15 13 12 8 6 5 2 1 1 2 9 14 15 11 12 14 12 17 19 18 19 19 21 22 24 20 21 15 12 12 15 17 23 21 6 8 13 29 28
8 9 12 14 12 10 7 5 5 2 5 6 4 10 9 9 12 13 12 16 17 18 18 20 21 18 18 20 21 14 15 14 10 10 10 10 5 12 10 8 13 12 19
6 4 7 10 7 5 3 5 12 15 12 7 6 7 7 10 12 14 15 18 18 16 20 19 19 17 18 17 15 14 11 10 10 13 14 13 11 13 13 13 14 10 17
4 5 6 4 5 7 9 9 9 14 16 10 8 8 10 13 14 15 16 15 15 17 20 18 19 15 12 12 12 11 11 11 12 14 14 16 17 16 14 11 8 7 5
5 3 5 7 1 4 8 7 8 10 15 8 7 9 11 13 13 11 11 14 13 13 18 20 19 18 16 14 14 14 16 17 20 23 17 18 18 19 18 17 17 13 6
3 4 9 11 13 17 19 17 13 9 10 11 10 9 16 10 10 12 15 10 15 19 19 17 18 20 18 16 19 20 18 19 18 17 16 20 20 20 20 19 20 21 16
6 1 14 21 22 24 18 12 12 12 14 12 12 14 13 12 13 13 12 15 16 18 19 20 20 20 20 20 18 20 17 16 19 19 18 17 19 20 20 20 22 24 20
13 14 18 19 19 17 19 18 17 13 13 13 14 17 15 15 17 14 15 16 16 15 17 19 20 20 20 20 19 20 18 20 19 22 23 23 20 21 20 18 21 21 21
9 9 12 15 19 21 21 20 18 13 9 11 12 15 15 15 15 16 14 13 15 17 18 19 20 20 21 21 19 19 15 15 19 22 26 26 24 23 22 21 20 19 17
10 10 13 16 18 19 19 16 19 12 16 16 13 12 12 10 10 13 13 16 17 19 19 19 18 19 20 20 13 13 17 19 20 22 28 30 28 26 26 20 16 14 19
11 12 12 16 16 17 18 20 20 23 18 17 14 15 14 10 11 8 11 16 18 17 17 19 20 21 19 11 16 15 16 19 22 24 26 28 29 29 24 19 20 19 17
13 13 16 16 16 18 20 24 24 27 13 16 19 20 20 14 8 10 13 16 17 16 19 19 20 18 13 16 16 20 23 21 23 26 27 28 29 28 24 15 18 21 22
13 13 13 15 17 19 23 24 27 30 26 23 19 12 9 11 7 12 13 18 17 19 19 20 18 13 14 12 19 20 21 18 23 26 27 26 24 25 20 16 16 14 14
12 13 15 17 18 22 23 25 28 30 33 30 22 12 10 9 13 7 10 18 18 20 21 18 14 13 12 20 25 21 19 20 21 24 27 26 25 22 21 20 18 18 20
14 16 18 20 22 22 24 28 29 30 31 32 19 20 5 13 9 9 12 18 20 21 14 14 14 17 22 24 21 17 16 18 21 24 25 25 25 25 23 23 20 20 21
18 19 21 21 22 23 27 26 27 28 28 28 19 13 14 13 11 12 16 16 17 16 14 12 14 17 24 20 15 14 15 19 22 23 23 23 23 10 10 12 14 16 17
20 23 21 20 20 24 24 24 26 27 23 19 16 15 17 16 15 13 15 15 18 17 11 14 21 21 19 15 15 12 16 18 22 23 24 24 16 15 15 16 18 18 18
22 22 23 20 23 23 23 22 23 24 22 18 17 16 16 17 14 13 14 19 18 11 13 18 20 19 16 17 18 14 20 23 25 24 23 24 20 17 19 17 14 13 15
21 24 21 23 25 21 21 21 23 19 19 18 21 18 17 15 10 16 18 16 10 12 14 15 18 18 20 21 17 23 24 23 24 23 24 22 15 16 16 14 14 15 13
22 20 25 25 21 24 24 20 21 20 19 18 18 18 16 17 15 15 15 11 12 9 10 13 13 16 18 18 22 25 25 24 22 24 22 15 17 15 20 13 12 11 9
20 25 23 22 23 25 23 20 18 16 14 15 16 19 14 14 15 14 9 8 8 9 10 9 9 12 15 17 21 21 23 23 22 21 14 16 18 19 16 17 16 15 15
25 24 24 25 25 24 21 20 14 9 10 12 15 16 16 14 14 11 12 15 15 12 14 11 10 10 9 16 19 19 21 18 17 14 13 14 16 16 15 14 15 16 15

GFSMW_925_spd_003.txt.gz
Wind_Speed
20 30 37 33 37 29 27 24 21 11 17 14 13 11 9 8 8 9 5 6 10 11 13 24 15 10 11 15 18 22 26 29 29 30 31 30 30 29 29 28 28 24 27
16 24 34 35 33 31 28 26 24 24 20 16 15 11 7 4 3 6 6 9 12 19 17 13 11 13 14 16 17 18 21 21 25 20 19 5 16 23 21 25 24 25 23
14 14 23 29 29 28 25 22 19 17 15 9 5 2 2 4 8 11 14 19 13 12 11 12 13 14 13 14 16 19 23 25 25 16 6 4 4 10 11 21 22 29 27
12 14 19 22 23 21 18 16 12 10 7 7 6 8 9 10 13 15 11 11 11 12 14 15 17 18 17 16 16 18 19 19 14 11 8 5 4 2 4 17 26 25 33
11 9 18 17 14 12 12 10 7 8 9 10 4 2 6 8 4 10 5 7 13 18 17 18 22 22 19 18 19 17 16 16 12 11 10 10 13 6 4 9 10 23 23
9 16 20 14 8 5 4 5 6 4 9 11 6 6 8 5 3 3 5 11 17 16 19 20 17 16 14 14 11 12 12 12 11 8 9 11 4 6 6 4 16 16 21
8 9 14 15 9 4 3 2 2 6 6 4 9 5 4 6 6 8 12 16 14 16 16 12 13 15 15 14 13 12 10 10 11 12 15 13 17 19 21 15 17 10 20
7 7 9 7 5 4 8 4 6 8 7 7 8 11 12 10 10 14 17 13 15 7 10 15 14 12 14 13 16 18 20 21 22 23 22 23 24 23 21 18 12 10 9
8 6 9 8 18 14 13 12 8 6 11 11 9 8 11 12 18 17 14 12 9 12 13 15 16 18 19 20 22 25 26 24 19 18 19 17 16 19 18 18 20 14 7
8 9 19 17 17 22 22 20 19 18 14 12 11 13 12 14 11 8 8 10 14 18 17 18 19 20 21 20 21 21 20 20 20 21 19 19 20 17 20 18 20 19 15
8 7 12 15 18 20 20 20 19 17 14 14 16 13 13 8 3 4 5 8 12 17 16 16 18 19 18 17 18 19 21 21 22 21 19 20 22 23 25 24 20 18 17
7 9 16 19 19 19 25 22 20 13 10 16 13 13 13 9 10 8 5 6 7 8 8 13 16 17 17 19 18 15 10 9 14 17 20 24 25 26 26 26 23 22 20
9 10 17 17 18 20 21 19 23 18 25 21 16 13 13 12 15 6 4 3 5 8 10 10 11 14 16 15 14 10 12 15 17 20 23 26 29 30 28 29 27 15 8
8 7 11 15 17 16 18 22 25 27 31 28 16 18 20 20 5 2 4 8 10 12 10 8 14 18 17 15 12 11 12 15 19 22 25 28 28 28 28 28 25 19 19
7 7 6 13 14 17 20 23 24 28 30 32 31 29 25 8 4 1 2 11 13 9 8 14 15 16 12 13 12 11 14 19 23 24 25 25 25 25 26 22 18 20 15
8 7 10 11 12 16 19 21 24 27 30 31 32 35 15 5 7 11 15 13 4 8 13 15 16 14 10 12 10 14 21 23 20 23 27 25 21 20 22 16 14 11 13
6 6 10 10 13 16 18 21 22 25 28 31 30 22 14 13 9 7 20 8 9 11 17 17 8 7 9 9 17 21 19 18 18 20 25 25 20 23 21 20 19 17 15
5 9 9 13 12 13 18 19 21 24 26 24 26 22 17 13 9 9 11 7 11 15 14 4 8 7 13 17 16 15 16 15 18 20 24 22 23 24 21 23 22 20 20
6 7 11 8 11 15 19 18 19 21 23 19 19 17 13 13 11 16 14 13 12 11 7 5 9 15 17 15 13 17 16 15 18 19 21 22 23 22 20 15 17 18 22
10 10 11 11 11 14 16 14 16 19 15 16 16 19 19 17 17 17 22 14 11 13 5 10 14 15 14 12 16 14 14 18 19 20 21 22 21 21 15 13 17 19 22
9 13 10 6 11 17 14 13 16 17 14 15 17 18 21 22 24 23 5 13 13 6 8 10 12 14 14 17 11 12 18 19 18 20 20 22 22 24 14 17 19 20 18
12 12 9 12 18 13 13 16 15 14 14 16 16 18 17 18 9 12 16 15 6 7 9 12 14 14 17 17 13 18 19 19 21 21 23 26 22 17 18 17 16 11 15
15 14 19 19 14 14 18 15 9 12 17 20 16 16 17 14 16 14 11 6 6 9 9 12 13 15 16 17 19 21 19 18 21 20 21 18 18 16 16 15 14 13 13
18 19 19 16 17 22 19 10 13 14 16 11 14 16 17 17 16 12 9 6 10 11 10 11 12 12 14 16 21 21 22 22 20 21 16 17 17 20 15 17 16 15 15
17 19 19 19 23 24 18 19 22 15 10 10 13 13 15 17 17 11 6 10 10 9 11 11 9 10 11 13 17 20 21 21 17 17 15 17 18 17 19 18 18 18 17
21 20 22 24 25 21 22 26 25 13 9 10 9 11 13 15 12 8 9 12 15 14 14 12 8 7 8 11 14 17 19 16 16 15 16 15 18 17 16 18 19 20 17

GFSMW_925_spd_006.txt.gz
Wind_Speed
20 30 33 29 28 22 20 16 18 14 14 18 17 13 11 7 8 9 6 6 10 15 17 14 9 9 10 12 14 15 16 18 22 25 28 25 26 20 24 17 14 17 18
17 24 32 34 31 29 26 20 17 16 15 15 10 5 3 6 5 5 5 10 12 10 10 11 13 14 14 16 17 19 19 16 18 12 14 7 19 20 17 17 18 25 24
15 15 22 28 26 23 19 19 17 14 12 10 5 4 2 1 5 10 11 9 5 6 9 14 17 18 18 16 16 18 19 16 15 11 5 3 3 6 11 23 20 29 27
12 15 19 21 20 17 16 15 12 8 5 4 5 5 3 4 6 4 4 1 7 12 15 16 16 14 12 14 15 17 17 18 15 13 10 6 3 2 7 6 25 24 33
12 9 17 18 14 12 10 6 4 4 4 4 5 4 3 5 2 2 1 7 11 14 16 18 16 15 17 16 15 15 15 14 10 10 9 8 10 4 4 10 11 21 26
8 12 13 12 11 7 5 3 0 3 5 6 7 7 5 4 5 5 8 14 15 14 11 10 11 13 15 15 14 14 16 19 19 18 16 12 7 7 4 5 16 19 19
8 7 8 7 5 2 1 3 4 7 8 8 7 5 3 10 9 12 19 18 16 9 6 7 11 11 12 13 16 19 22 24 21 21 21 19 21 21 20 14 13 10 22
7 6 6 3 11 18 21 14 12 14 11 12 16 14 9 7 11 16 16 16 7 4 6 6 8 10 13 14 15 15 14 16 18 19 18 21 20 16 17 10 11 10 13
7 8 10 25 26 27 24 19 15 13 10 8 9 12 17 17 18 21 14 9 8 2 4 8 12 13 16 14 14 14 15 15 16 18 19 20 20 19 18 17 16 8 6
8 9 17 21 21 17 15 13 11 11 10 13 16 17 12 14 12 17 11 11 7 3 5 13 12 9 11 12 12 13 14 15 16 16 14 13 16 21 22 23 19 19 11
7 7 14 15 14 14 13 13 14 11 14 19 20 20 19 18 14 7 6 5 4 8 8 8 7 9 9 9 10 11 10 9 6 7 12 16 20 22 25 25 24 20 19
7 9 12 10 10 13 16 19 19 21 24 23 22 22 22 18 16 11 8 12 13 5 6 9 9 11 11 10 11 12 7 5 6 10 15 21 23 26 27 27 26 24 26
6 6 8 10 13 15 16 17 21 22 24 27 27 26 26 28 24 16 13 5 2 10 23 10 11 11 14 16 14 7 5 6 8 14 18 19 22 26 27 27 26 23 25
5 5 8 9 9 11 14 15 17 20 23 25 27 28 27 25 17 5 3 8 12 14 21 11 11 15 15 14 10 8 6 9 16 20 17 19 22 23 25 25 23 20 20
5 5 3 2 5 10 11 13 15 18 19 19 22 20 22 18 13 16 19 15 16 13 11 11 14 15 15 13 9 6 11 18 18 19 17 18 19 20 19 19 15 16 15
2 3 4 3 6 8 8 10 13 13 14 17 15 20 19 17 15 15 15 17 18 7 7 16 15 12 9 10 8 16 16 16 17 16 18 20 20 17 19 18 18 15 13
4 5 0 2 7 5 6 8 9 10 11 10 12 18 18 17 18 17 14 18 12 15 17 12 4 6 6 9 13 14 14 15 15 16 19 19 18 21 22 22 20 20 17
5 2 1 2 4 1 5 7 6 8 11 10 15 17 16 19 18 10 12 13 13 18 9 2 2 6 8 10 10 11 14 14 15 17 19 22 22 21 21 22 17 17 17
3 2 3 5 6 3 6 6 7 10 12 13 14 16 17 18 20 19 22 17 20 7 3 2 4 6 9 8 10 11 12 15 19 21 19 20 20 20 19 21 16 17 19
5 4 3 5 3 9 13 8 8 10 12 13 15 16 16 18 21 22 21 17 6 3 5 4 6 8 8 11 9 13 18 20 18 18 19 17 19 20 21 15 15 16 20
5 6 5 5 13 14 7 9 11 12 11 11 15 16 16 16 13 10 6 9 3 8 6 5 6 8 11 12 11 15 16 17 17 18 17 21 20 17 20 17 16 17 15
13 13 12 13 11 8 17 16 14 11 10 15 16 13 12 12 13 11 10 5 7 5 3 6 6 7 11 14 16 15 15 15 17 17 20 19 19 17 16 15 15 14 10
11 11 11 10 12 20 22 18 14 12 16 13 9 10 12 12 13 9 1 5 4 3 3 5 5 6 11 14 16 17 16 17 15 15 14 15 15 16 14 15 13 13 14
9 10 12 15 18 22 16 12 16 20 20 14 9 10 9 11 11 8 3 4 3 4 4 4 4 6 9 14 15 18 20 17 15 14 13 16 17 15 16 17 18 17 15
8 13 16 17 20 20 22 24 22 23 22 14 9 7 6 8 7 4 4 6 6 5 6 6 5 6 8 11 11 14 17 15 16 12 14 17 19 18 19 20 20 18 19
14 18 18 20 19 23 25 25 16 17 12 13 12 7 6 6 1 2 4 6 7 8 8 8 6 7 7 10 10 10 11 13 11 14 16 16 17 17 17 20 20 21 21

GFSMW_925_spd_009.txt.gz
Wind_Speed
10 20 22 17 17 14 12 9 10 12 14 15 15 12 11 9 8 5 5 6 9 10 9 9 9 12 14 15 18 20 23 23 25 20 23 22 11 20 10 16 15 17 20
12 19 28 27 23 22 18 13 15 16 14 11 10 6 4 4 5 5 6 7 8 9 10 10 11 12 14 16 18 20 20 18 20 12 14 4 13 3 21 12 14 20 22
10 7 19 24 22 18 16 16 14 12 8 4 2 3 3 2 3 3 4 6 7 9 11 13 14 11 10 11 13 13 14 13 15 15 7 4 3 6 8 24 12 26 21
9 9 16 20 21 18 14 12 9 7 6 5 4 5 7 6 3 1 4 6 8 11 12 13 11 9 10 14 16 13 13 12 13 9 11 11 10 3 6 5 25 16 30
8 8 17 19 16 14 11 8 5 2 2 3 6 7 5 3 3 6 8 13 12 10 10 15 13 11 8 12 14 11 9 10 10 11 13 11 17 12 4 10 10 20 24
6 11 16 13 10 5 4 4 4 5 4 5 6 7 4 2 7 8 13 18 17 21 29 24 5 3 9 12 10 10 12 14 11 10 11 11 8 12 10 5 17 17 21
7 7 9 12 11 8 4 4 4 8 7 7 8 10 11 6 2 10 17 25 28 24 17 8 4 6 8 8 9 9 10 9 11 11 10 10 11 13 13 13 15 5 17
5 7 15 20 20 20 17 15 14 14 13 13 11 9 13 15 17 18 21 21 22 18 11 4 5 12 8 7 8 8 9 9 10 11 12 13 12 9 11 10 11 10 7
7 10 19 19 16 14 13 12 12 11 12 13 14 15 17 17 19 19 22 19 12 8 7 2 11 8 10 9 9 8 9 10 11 13 13 13 9 9 12 14 14 8 8
8 8 14 13 13 13 13 12 12 13 13 12 13 15 17 18 21 22 23 15 11 10 7 12 14 6 13 11 10 12 11 14 16 14 12 11 10 13 16 19 19 17 16
7 7 11 12 11 12 14 15 13 11 11 13 15 16 17 19 21 23 20 16 12 6 6 5 8 14 11 9 13 14 17 17 14 9 10 14 16 17 21 22 23 24 21
7 9 10 10 12 13 13 12 10 10 12 14 17 19 20 21 23 23 16 8 9 5 7 9 16 16 14 12 14 16 15 10 11 11 14 19 20 20 21 23 24 22 23
6 5 6 10 12 9 9 8 7 8 11 16 19 21 22 23 23 21 16 18 15 17 22 24 22 18 14 14 16 15 12 13 10 14 19 19 18 20 23 24 25 24 23
5 4 5 11 10 8 7 4 3 7 12 15 18 19 19 19 19 18 14 18 22 21 18 18 17 14 15 15 16 13 11 11 17 20 19 18 18 21 23 24 19 20 17
5 5 4 9 6 7 5 1 3 8 11 13 14 16 16 17 17 19 20 22 19 16 18 13 10 17 14 14 11 10 11 17 19 19 20 19 18 21 20 20 21 22 18
4 3 1 7 7 9 7 5 6 7 8 9 13 14 17 18 18 18 18 16 18 19 9 15 15 16 8 6 7 12 16 18 18 22 21 20 22 20 22 22 20 20 19
5 4 6 11 11 14 11 9 8 8 9 11 13 15 16 17 18 18 15 14 13 8 14 16 11 3 3 7 10 13 15 17 19 19 21 22 19 23 22 21 20 21 19
6 7 12 12 15 14 10 9 11 11 10 13 14 15 18 20 19 18 16 17 15 11 18 8 3 2 7 9 9 11 14 15 17 21 22 21 22 22 21 24 18 17 15
12 12 12 10 10 8 9 13 13 11 13 17 16 17 19 21 21 22 21 16 14 11 4 4 1 4 7 9 9 11 13 17 20 18 20 18 19 19 22 20 18 17 17
6 3 4 2 2 9 11 9 9 14 18 18 16 17 20 19 18 17 11 6 5 3 5 2 2 4 6 8 9 12 15 16 18 21 19 16 16 21 20 20 19 16 19
7 8 7 3 5 5 10 16 18 18 20 17 16 18 15 13 12 13 13 9 7 5 6 1 1 2 5 7 10 11 13 16 17 19 18 19 18 18 17 16 18 16 16
8 7 6 6 5 11 16 18 18 18 16 17 20 18 12 11 10 10 8 5 5 7 4 2 3 3 5 8 11 12 12 14 15 16 17 17 17 16 15 16 16 14 14
6 4 4 6 10 12 13 14 16 19 20 22 25 18 12 10 9 7 4 4 5 3 4 5 5 5 4 7 9 13 13 14 14 13 13 14 15 14 14 15 15 15 16
3 3 6 9 12 14 13 17 20 20 19 23 23 13 12 8 8 5 3 4 2 4 7 7 6 6 5 7 9 12 14 14 15 11 11 13 15 14 15 16 16 17 17
1 5 8 11 15 15 16 19 20 16 14 19 16 11 9 10 4 2 3 3 4 6 8 7 7 7 5 7 8 10 12 14 13 11 11 15 18 17 17 19 18 18 19
3 7 10 14 17 17 22 21 18 16 16 17 17 16 11 8 6 5 4 3 5 7 8 8 7 7 6 6 7 7 8 10 11 9 10 13 15 17 15 18 19 19 20

GFSMW_925_spd_012.txt.gz
Wind_Speed
6 11 17 19 23 22 20 16 14 11 15 19 14 10 8 5 4 3 3 3 5 7 8 6 7 8 11 11 11 14 16 17 19 10 22 13 1 11 13 20 13 17 19
7 14 19 26 27 23 17 16 17 19 16 12 6 4 6 6 4 3 4 4 5 6 6 8 11 13 12 11 11 13 15 11 12 8 8 3 8 5 21 13 20 16 23
8 8 17 21 24 24 24 22 19 16 10 6 7 5 3 3 2 1 4 6 6 7 8 10 14 14 11 8 8 12 15 8 7 6 3 3 3 9 10 19 14 24 23
6 7 15 18 20 19 18 17 14 11 9 5 3 1 3 2 1 2 5 4 8 12 13 19 22 16 10 5 8 8 11 9 8 6 5 7 7 2 6 4 19 18 24
5 12 12 13 14 13 12 9 8 6 3 2 3 4 2 2 4 5 3 9 19 22 17 17 21 11 2 6 7 7 10 11 9 7 9 10 11 12 5 9 13 19 16
3 11 12 10 7 9 8 7 5 6 7 6 9 10 7 5 2 6 11 14 21 21 25 18 7 1 6 10 11 15 12 9 9 9 9 7 4 8 6 5 11 14 16
4 4 6 14 10 9 9 10 13 19 18 18 17 15 12 10 12 16 18 18 23 22 23 10 2 5 9 10 12 13 11 8 6 8 9 9 10 11 11 8 10 5 17
4 5 9 17 21 20 19 18 17 16 14 13 11 9 10 11 14 18 20 23 26 23 17 10 9 5 11 9 9 10 10 9 10 11 12 14 14 11 10 8 9 6 7
6 7 11 16 17 17 16 16 14 11 9 10 11 12 12 14 16 19 22 24 25 23 10 11 6 16 5 9 12 11 13 12 13 14 15 16 15 10 11 12 14 10 8
8 7 13 15 16 17 17 15 11 10 10 10 12 13 15 17 18 20 22 22 20 11 10 8 12 6 7 11 16 14 12 14 16 15 15 13 12 13 16 18 20 20 19
8 6 11 13 15 18 16 12 9 6 6 8 11 13 14 15 17 20 20 19 17 14 14 14 14 10 13 16 17 16 15 16 16 15 13 13 15 19 21 22 23 24 21
7 8 11 13 13 14 12 10 5 3 4 7 10 11 12 14 17 19 19 18 15 15 18 15 11 15 19 15 16 17 17 17 14 13 13 17 21 22 22 21 23 24 24
6 6 8 12 13 11 8 5 4 2 3 6 8 9 12 15 17 19 19 18 18 16 14 14 18 16 12 11 14 16 16 13 13 14 17 21 21 23 23 24 24 24 21
6 5 6 11 9 8 9 11 8 5 5 7 8 11 13 15 18 20 20 20 20 19 19 16 17 9 7 13 15 14 11 12 14 18 20 21 22 22 23 23 22 21 23
6 6 5 10 11 12 15 12 9 8 8 9 10 12 14 16 19 21 21 21 20 18 18 16 8 9 11 17 9 7 10 14 18 21 22 23 21 22 23 22 22 23 20
7 6 8 14 18 18 17 13 11 10 11 12 13 15 16 17 20 23 22 20 18 17 18 8 13 13 12 3 4 9 14 17 20 23 21 23 22 20 20 23 22 22 23
7 7 8 14 20 18 15 13 10 13 14 13 15 18 18 18 22 23 22 21 19 17 12 12 13 4 1 5 8 12 15 17 18 20 23 21 17 20 21 22 22 24 20
6 7 10 11 13 12 11 10 13 15 15 15 18 19 18 19 24 24 23 24 20 17 14 11 3 0 3 7 11 14 14 17 19 19 18 19 19 20 19 24 20 19 19
12 9 7 7 8 7 6 10 14 13 13 18 21 19 16 20 23 22 21 17 12 8 4 3 2 3 4 8 11 11 15 16 17 17 18 16 17 18 22 23 20 18 18
5 4 4 3 3 1 5 6 11 16 19 21 20 17 16 20 19 18 13 14 11 7 5 6 3 2 4 8 9 10 13 15 18 20 18 15 16 19 20 19 18 19 14
9 9 8 5 2 2 6 11 14 14 16 17 18 19 22 20 16 16 15 15 12 7 7 4 3 4 5 6 8 9 11 15 17 18 19 18 17 20 19 18 19 18 17
13 8 6 4 2 5 9 11 11 15 19 20 21 24 25 16 14 15 14 12 6 6 6 4 5 6 5 5 8 8 10 13 14 17 16 17 17 17 16 15 16 15 15
11 6 4 2 5 7 9 9 15 17 20 19 18 23 16 9 13 13 12 8 5 5 4 8 9 9 8 6 7 8 11 15 13 14 12 14 15 15 14 15 14 15 16
7 3 1 4 8 10 10 11 17 18 19 15 16 18 11 11 10 11 9 6 4 6 9 11 11 10 9 7 7 7 10 14 14 15 13 13 14 14 14 16 16 16 16
5 1 2 5 9 11 12 15 18 15 16 15 16 20 17 15 10 8 7 6 7 9 11 12 10 11 11 7 6 7 9 11 14 14 12 14 16 19 18 19 18 19 19
3 2 4 7 11 13 16 17 12 11 13 16 17 19 17 17 9 10 10 9 9 8 10 11 12 11 10 7 6 7 7 9 12 12 12 13 14 16 16 17 19 19 21

GFSMW_925_spd_015.txt.gz
Wind_Speed
5 7 11 14 18 19 19 19 15 12 10 18 17 13 8 6 6 4 2 1 2 3 4 5 7 9 11 11 12 12 10 8 12 11 14 12 6 4 5 8 9 9 12
9 9 12 14 15 17 16 15 15 18 20 18 14 7 8 6 6 3 2 1 3 5 8 9 12 14 12 11 9 6 7 7 8 10 12 5 8 9 10 15 11 14 13
13 12 15 17 14 14 17 19 20 19 15 9 8 7 7 7 3 1 1 4 9 15 16 16 14 15 12 6 3 6 8 10 8 7 6 5 5 17 10 16 18 15 19
12 14 14 14 19 16 18 17 17 13 10 7 4 4 3 2 2 2 4 6 10 12 12 14 13 15 6 1 3 5 7 8 10 9 5 8 12 7 9 14 17 18 21
9 12 16 18 20 22 19 16 12 11 8 8 9 10 10 9 6 5 6 9 12 15 16 16 17 13 4 1 2 3 5 6 6 6 8 8 10 10 9 12 17 19 18
6 10 10 13 16 14 16 18 19 21 20 19 18 17 15 11 8 8 11 12 17 20 21 19 15 6 4 1 1 4 6 7 4 4 5 7 9 11 12 10 15 19 22
7 6 8 8 8 13 16 20 20 20 18 16 14 12 10 8 9 12 13 18 18 19 18 20 11 9 5 2 5 7 5 4 5 5 7 7 10 11 12 13 16 15 25
8 7 7 9 11 15 19 18 17 17 15 14 13 11 10 9 10 14 17 18 19 20 22 16 13 9 3 7 12 8 6 7 8 9 9 10 12 11 12 12 14 13 20
9 9 11 12 13 14 17 17 15 16 15 13 9 8 8 9 11 15 19 21 23 23 19 12 14 11 10 9 10 10 10 10 10 12 12 12 13 12 10 11 11 15 14
10 10 12 11 11 14 16 14 15 15 12 9 7 7 8 11 14 19 21 22 21 20 13 12 13 12 13 8 11 13 12 13 13 13 13 14 12 11 12 13 15 17 21
12 11 11 11 11 14 13 14 12 9 6 5 5 7 9 11 15 18 20 20 20 19 15 13 13 12 10 12 18 14 14 15 14 13 12 13 12 14 16 17 19 20 21
13 13 13 13 13 12 14 12 6 3 2 0 3 6 8 11 13 16 18 19 19 17 15 15 14 11 15 20 17 10 12 13 13 11 11 13 14 18 19 20 21 21 22
13 12 13 14 14 14 11 7 3 7 6 3 4 6 8 11 13 15 18 20 19 17 16 13 15 19 16 15 9 10 12 10 8 9 11 15 17 20 22 22 24 22 22
13 11 10 13 12 11 9 4 11 12 7 5 7 8 9 12 14 17 19 19 19 17 14 15 15 13 8 9 9 9 7 6 8 10 14 16 18 20 22 23 21 22 20
12 10 9 13 13 14 15 13 13 10 8 8 11 11 12 13 15 18 22 20 19 16 14 15 13 9 10 10 5 3 5 8 12 15 16 16 17 19 20 20 21 22 22
12 11 12 15 18 19 14 12 12 9 8 11 13 13 14 15 17 19 23 21 18 16 14 10 9 12 8 3 3 6 7 10 13 15 17 18 16 15 17 18 18 19 21
13 12 13 15 17 14 13 12 10 7 9 13 14 14 17 17 17 19 20 19 17 16 12 10 10 4 1 2 6 9 8 11 13 15 16 16 15 16 16 17 20 20 18
12 11 13 13 9 9 9 8 6 7 12 13 13 17 18 17 16 18 17 17 16 12 8 8 3 3 1 5 8 12 10 11 12 13 14 15 16 15 17 21 20 18 18
13 12 11 8 7 7 7 4 3 6 9 13 16 17 17 16 14 15 15 15 12 10 7 4 4 4 1 5 9 10 10 11 13 13 14 14 15 16 19 20 19 19 20
10 9 7 9 10 8 4 1 3 8 10 12 14 16 15 15 16 15 14 14 12 11 9 5 5 4 3 6 8 9 9 12 14 14 14 13 14 17 19 19 18 19 19
16 17 15 11 10 7 2 2 6 7 9 14 17 15 14 17 16 12 12 13 11 9 7 7 5 5 6 6 7 8 8 11 14 14 14 13 15 18 18 16 14 17 20
17 17 16 13 8 2 2 4 5 7 12 14 14 12 15 16 9 9 10 10 9 6 7 7 7 8 9 8 8 8 8 9 12 13 13 14 17 17 15 13 14 15 14
16 12 13 10 4 1 3 4 5 11 13 14 12 11 14 11 9 10 9 8 6 5 6 7 8 8 9 9 9 10 9 10 11 11 13 14 15 15 12 12 13 12 12
11 8 7 5 2 2 4 6 9 13 13 10 10 13 13 14 12 11 9 7 6 6 7 9 10 9 8 9 9 9 8 9 10 12 12 11 12 12 11 11 11 11 11
10 9 6 4 2 4 6 8 11 11 7 8 10 14 15 15 13 12 10 7 7 8 9 10 10 10 10 10 10 8 8 8 10 13 9 9 10 12 12 11 11 12 12
10 6 4 2 3 5 8 9 9 7 7 9 10 12 12 13 12 11 9 11 11 12 12 13 14 15 14 12 10 9 9 9 11 9 9 9 9 10 12 12 12 11 13

GFSMW_925_spd_021.txt.gz
Wind_Speed
12 10 9 9 10 12 14 15 15 14 13 11 11 10 11 10 8 7 6 4 3 3 3 3 6 8 10 13 15 18 19 21 20 18 19 21 25 22 15 21 13 13 18
11 10 11 12 12 13 14 16 13 14 12 12 13 12 11 9 9 7 5 3 3 3 4 6 9 10 14 16 17 17 18 17 17 17 17 11 20 22 19 20 20 24 17
13 11 13 13 12 13 13 14 14 14 13 12 10 9 9 8 8 5 3 2 4 5 7 9 11 14 15 17 17 15 14 18 16 17 15 11 11 21 23 23 24 24 21
12 12 15 16 15 15 15 15 17 14 11 10 10 8 4 6 5 3 3 3 5 7 10 12 13 15 17 17 16 15 12 15 15 18 20 20 20 11 13 20 21 21 22
14 15 16 18 18 17 17 16 14 12 11 9 8 6 6 5 4 2 3 5 7 10 12 15 16 16 18 17 15 14 14 13 17 19 19 17 17 18 17 12 19 23 23
16 17 20 21 19 17 16 16 15 14 12 12 11 11 8 5 3 3 5 7 10 11 12 14 16 17 17 16 15 13 12 15 17 16 15 16 15 15 17 12 19 21 25
16 17 17 19 19 18 17 16 15 15 14 13 12 11 9 7 5 6 6 9 10 11 13 15 16 18 17 16 14 10 15 18 15 13 17 15 15 15 17 18 20 17 26
16 17 18 18 18 18 18 16 16 15 14 13 12 10 7 4 2 2 6 7 10 11 14 15 17 17 15 14 10 14 17 14 14 15 14 16 15 17 17 20 20 13 21
17 17 18 18 18 18 18 18 17 15 14 13 9 7 7 5 1 2 5 7 9 12 14 15 16 16 14 16 15 17 18 17 14 17 14 14 16 17 18 20 22 20 12
17 15 17 17 18 19 19 18 17 16 13 9 9 10 8 5 2 3 6 9 10 12 14 15 16 17 17 17 19 19 21 21 15 19 14 15 17 16 19 22 22 23 22
18 16 16 19 20 21 21 20 19 16 12 11 12 10 7 6 5 6 7 9 12 13 15 16 16 16 17 17 19 22 21 21 18 16 14 15 16 18 21 23 24 25 25
17 16 19 20 22 23 23 22 19 13 12 13 12 10 9 8 8 8 9 11 13 14 16 17 17 17 17 16 18 21 19 16 15 12 14 16 18 21 24 24 25 25 27
18 16 19 21 23 24 23 22 17 13 12 12 12 12 11 10 10 10 11 12 13 15 17 17 17 16 16 16 18 16 14 12 12 14 13 16 19 23 23 22 23 25 26
17 17 16 20 23 24 24 22 17 12 14 15 14 13 11 11 12 12 13 14 14 16 17 17 18 17 17 14 11 11 12 12 12 10 13 17 20 18 16 21 20 21 22
15 16 16 18 23 24 23 22 17 12 16 14 13 12 12 12 13 14 14 15 14 16 17 17 17 17 14 10 7 10 10 10 11 14 17 18 15 16 14 14 19 19 20
15 16 17 21 23 24 23 23 15 15 15 14 13 13 12 12 14 14 15 16 15 16 16 16 15 14 9 6 10 6 7 12 14 17 17 16 15 11 16 15 12 16 21
13 16 17 21 22 23 23 22 16 13 14 12 12 12 12 13 14 15 16 16 16 16 16 14 11 11 3 6 6 5 8 12 14 15 14 15 14 14 15 15 18 20 23
13 14 17 19 21 20 19 19 14 13 12 9 9 11 11 14 14 15 16 16 16 16 14 13 11 10 5 8 8 7 8 12 12 12 13 13 13 12 12 17 19 21 21
10 13 16 18 17 16 20 15 12 11 8 10 10 9 10 12 15 16 16 16 16 15 14 13 10 10 8 11 8 7 9 11 11 12 12 11 13 12 16 16 19 21 21
11 13 14 14 14 12 12 12 8 5 7 5 6 8 10 12 15 15 15 16 14 14 13 12 10 9 5 9 11 8 8 10 11 11 11 10 7 12 13 16 18 20 20
10 10 9 10 11 10 11 7 7 1 4 7 8 10 12 13 14 14 15 13 13 12 11 10 10 10 8 10 11 10 7 9 10 11 11 10 13 15 16 15 15 16 21
5 4 6 8 10 8 7 9 2 1 3 6 10 12 13 13 13 15 15 15 15 12 10 9 9 11 11 12 13 12 10 9 9 11 12 12 16 17 15 14 14 21 16
4 5 12 15 10 9 8 0 5 2 6 8 11 13 12 12 14 15 17 17 15 13 11 9 10 12 13 12 14 13 11 11 10 10 12 15 15 14 13 9 16 13 13
11 13 13 11 10 4 1 2 3 5 8 11 12 11 12 13 14 14 14 16 16 13 10 11 11 14 13 8 8 10 11 9 10 11 9 15 14 12 14 13 10 11 12
13 13 15 9 5 3 1 3 6 7 9 9 11 11 13 14 16 15 13 14 15 14 12 11 12 11 9 11 10 9 8 9 8 10 11 12 11 11 12 11 11 11 11
12 12 7 2 3 6 6 6 6 7 8 8 9 12 13 15 15 16 16 15 16 19 18 19 19 18 15 15 15 15 14 14 12 9 12 12 9 10 11 12 11 11 10

GFSMW_925_spd_024.txt.gz
Wind_Speed
14 15 10 10 15 26 28 26 23 21 19 16 10 11 9 11 12 11 9 7 7 5 4 3 5 6 7 10 12 14 14 14 16 19 17 16 18 16 22 16 22 21 20
15 15 13 11 9 19 24 22 19 17 16 15 16 15 17 14 15 11 9 7 6 3 3 3 4 7 10 12 13 14 15 12 13 14 19 4 10 15 17 22 19 20 20
16 13 15 15 13 18 23 20 17 17 18 18 18 16 18 16 14 9 13 8 4 2 2 5 7 9 10 12 14 14 15 8 11 14 10 4 3 15 14 18 22 21 20
15 14 14 15 18 22 21 17 21 20 15 16 14 13 13 14 13 13 9 5 1 3 5 6 8 8 11 13 14 13 13 11 11 13 14 17 19 4 7 9 15 20 20
13 14 15 21 19 18 22 24 20 16 14 8 15 11 16 14 12 10 6 2 3 6 7 8 11 13 15 15 16 16 15 12 12 12 14 13 15 16 9 6 11 18 20
11 13 19 21 20 18 19 19 18 16 13 13 12 16 15 14 15 9 4 3 6 6 7 9 11 13 14 16 16 14 10 6 11 16 15 11 11 11 10 5 12 15 18
12 13 14 19 19 18 18 18 19 18 17 16 16 16 15 13 10 5 4 2 4 7 9 11 12 13 15 16 16 11 10 11 17 14 15 14 14 12 11 12 14 10 21
11 13 17 19 20 20 20 21 21 20 19 18 18 18 13 9 10 10 6 2 3 6 9 10 13 14 16 16 13 14 14 14 15 17 17 15 13 13 14 11 12 8 16
13 14 18 21 21 20 21 21 22 21 20 20 16 12 11 13 12 7 4 2 4 6 9 12 13 15 17 18 15 17 17 18 17 15 14 15 11 16 11 13 17 16 7
15 13 16 19 20 20 21 20 21 23 22 19 16 12 15 13 10 7 4 2 4 6 10 12 13 14 15 16 18 15 15 16 17 16 16 17 10 12 10 12 17 20 21
14 13 15 21 20 20 20 19 20 23 20 16 15 15 15 14 10 7 5 3 6 8 10 13 14 16 17 17 13 14 17 16 18 17 10 11 15 10 12 14 18 19 20
14 14 17 19 18 19 20 20 20 20 19 16 16 16 16 13 13 8 5 6 7 9 11 13 16 16 18 15 15 16 17 13 14 11 8 8 11 13 14 17 16 18 21
14 14 16 17 18 20 21 20 21 18 16 16 18 16 16 13 10 7 6 7 9 10 10 14 16 17 18 14 11 10 11 10 10 10 9 10 12 15 13 13 17 20 20
11 12 15 18 21 20 22 21 22 18 15 16 14 18 18 16 8 6 7 9 11 11 11 14 15 18 18 14 8 7 8 12 10 8 8 12 13 11 13 13 15 15 18
11 11 11 12 20 20 22 23 22 18 14 14 19 18 12 6 8 8 9 10 11 13 14 13 14 16 14 8 4 5 10 9 7 9 12 14 14 15 15 13 14 13 16
7 5 5 10 16 19 20 21 20 19 14 19 19 8 6 7 5 9 10 13 15 14 13 13 14 10 8 7 5 7 4 7 12 12 12 13 13 8 11 10 8 13 17
6 6 3 6 11 16 20 20 18 15 15 16 10 9 5 6 9 11 11 13 15 14 14 14 12 11 8 8 6 4 5 7 11 12 12 13 12 13 12 13 16 19 19
4 5 4 8 12 12 15 18 17 15 14 8 2 6 9 7 9 11 14 15 13 13 15 14 12 9 9 9 7 6 5 6 11 10 11 12 9 13 13 16 21 17 19
5 5 7 5 7 9 11 16 11 7 11 8 10 7 6 10 12 12 13 13 15 16 14 15 12 8 10 9 9 7 4 6 10 10 11 12 10 12 14 19 17 18 19
8 8 5 4 3 10 11 12 17 14 13 9 8 16 11 11 13 14 14 16 15 15 13 8 8 6 6 7 9 7 6 6 9 10 10 14 7 10 13 14 15 17 18
10 8 19 24 25 22 21 23 20 18 13 13 6 8 9 10 12 15 15 15 16 17 16 13 11 9 9 10 11 11 11 7 8 8 10 8 9 14 19 13 13 14 19
16 25 27 27 27 24 25 22 18 9 3 4 7 9 11 11 12 11 14 16 18 20 16 11 11 9 11 16 16 15 11 9 11 11 11 12 14 17 13 11 12 14 15
26 26 24 22 19 19 18 14 7 3 2 10 9 10 11 11 11 12 14 16 15 18 16 13 10 12 14 15 18 18 15 12 12 10 11 13 14 15 15 12 15 15 13
21 20 19 18 16 14 11 5 3 7 6 8 10 11 10 11 13 14 15 15 9 15 17 15 13 13 14 11 12 14 15 14 14 12 11 10 16 14 13 13 11 9 11
18 17 17 15 9 5 4 6 7 5 8 10 10 10 11 13 15 15 16 11 14 15 20 19 16 14 11 10 7 8 11 14 15 11 12 13 14 11 10 12 12 10 10
14 12 10 8 7 8 6 6 7 9 9 9 10 10 12 13 14 16 16 15 18 19 20 21 22 21 19 18 16 14 15 15 14 14 11 13 16 12 10 12 13 10 9

GFSMW_925_spd_030.txt.gz
Wind_Speed
22 32 35 34 32 34 40 37 36 35 33 30 23 17 15 17 16 15 14 14 12 13 11 7 3 2 3 6 9 8 10 12 8 7 9 8 4 3 10 9 10 9 9
14 22 32 32 34 39 38 40 40 39 35 32 26 17 15 19 16 18 16 14 12 10 7 3 1 3 5 7 8 9 10 9 5 3 3 2 7 3 15 9 13 3 4
20 18 27 33 32 31 37 40 38 36 35 31 24 17 19 18 23 22 18 15 10 7 5 5 5 3 2 3 4 7 7 6 7 4 3 1 3 3 5 11 2 2 5
16 14 24 27 34 36 36 37 37 36 31 32 29 26 28 27 27 26 20 15 11 8 7 7 5 3 1 3 5 6 9 10 9 5 4 5 5 3 3 6 7 4 6
17 15 20 29 32 37 40 39 35 32 30 31 30 29 31 31 28 25 21 16 13 10 9 8 3 2 5 6 8 9 9 8 6 4 4 7 12 11 5 3 5 8 9
9 7 18 25 26 32 33 32 33 30 27 28 28 30 34 30 28 25 21 18 14 10 5 3 4 7 8 8 9 9 4 2 6 9 8 7 4 5 7 4 7 8 8
12 11 14 20 24 28 34 34 30 25 25 28 30 32 34 32 30 26 22 17 14 9 4 2 5 7 7 8 10 7 7 9 11 8 8 8 9 10 7 6 6 6 5
11 14 15 22 26 29 31 28 29 25 23 27 28 30 30 30 28 23 18 15 11 7 4 4 7 7 8 10 11 11 10 10 9 10 11 12 14 14 10 7 5 3 5
10 12 14 21 26 28 32 34 33 28 26 26 27 27 26 23 19 15 12 11 8 5 1 4 6 8 9 12 12 15 13 8 8 11 11 14 16 14 13 15 10 5 2
8 10 14 21 27 30 32 33 31 30 27 26 26 24 19 15 15 15 12 10 7 5 2 7 4 7 10 12 14 14 7 9 10 10 11 11 10 13 13 7 5 7 3
14 15 17 26 32 34 34 33 32 32 31 31 29 24 20 17 17 14 12 11 8 5 7 6 6 7 10 12 13 13 14 13 9 8 9 6 6 8 5 6 6 5 5
16 16 22 26 28 33 35 39 39 38 37 34 30 25 20 19 20 17 15 14 9 12 9 8 8 9 11 12 14 15 13 12 10 8 6 5 6 5 7 7 8 7 9
11 13 13 21 27 30 34 39 42 40 37 34 30 24 22 22 22 19 17 16 14 12 11 10 10 12 12 11 13 15 11 9 5 9 7 6 6 8 9 8 10 9 8
11 12 12 17 24 28 26 24 28 34 36 35 30 26 25 23 23 19 15 17 15 11 9 11 14 14 13 12 14 11 10 9 9 6 6 6 7 6 8 10 8 8 10
5 6 7 7 15 18 19 23 32 35 38 36 31 27 24 22 22 19 16 13 6 3 8 12 15 17 14 14 14 12 10 10 7 6 5 5 7 8 7 8 8 7 11
5 3 10 12 17 22 25 27 33 35 37 35 30 23 21 18 16 17 13 7 5 4 9 16 17 13 16 15 14 12 10 10 9 8 8 8 10 10 9 8 7 8 11
6 5 6 10 16 23 30 32 32 33 31 22 20 17 20 22 17 13 10 10 6 12 14 12 13 14 14 16 16 13 12 12 10 9 9 9 11 10 10 10 10 11 15
7 7 6 6 13 18 20 17 18 21 20 20 21 24 22 21 18 14 9 4 11 13 11 15 16 17 15 15 16 14 13 12 11 10 10 12 12 12 11 11 13 15 18
9 13 17 19 20 19 21 27 27 27 27 23 24 23 20 15 10 6 3 11 7 10 15 13 15 16 16 12 15 16 17 15 13 11 12 13 13 11 12 11 14 18 17
14 16 21 26 29 25 28 34 28 30 29 26 21 11 7 4 1 5 9 8 13 9 10 16 16 15 17 15 15 17 18 16 15 13 12 13 14 12 10 12 15 15 12
17 20 24 26 25 25 31 29 26 23 16 11 7 0 3 1 7 8 10 11 7 12 14 13 14 15 15 20 17 18 20 20 18 16 15 14 15 14 12 11 13 12 12
17 20 23 22 22 21 22 21 17 9 4 3 4 1 3 9 8 9 8 10 13 14 15 15 15 20 17 18 21 21 22 21 21 20 17 15 14 15 13 13 13 13 14
16 17 19 19 17 15 14 15 9 9 8 4 1 7 7 8 9 8 12 13 13 15 19 16 17 19 17 16 19 24 27 25 26 23 20 17 15 15 15 14 13 15 16
13 13 17 17 17 16 15 12 8 4 2 4 6 8 10 10 12 14 14 14 15 18 18 18 21 23 23 22 20 20 24 31 27 25 23 21 19 18 17 16 15 15 14
14 16 16 15 13 10 8 7 7 7 8 11 13 14 14 14 16 16 16 16 17 15 15 19 21 23 26 28 25 23 21 24 27 23 25 22 22 22 21 19 16 16 16
15 14 13 11 9 8 8 10 11 12 12 15 17 18 18 19 19 20 23 20 20 19 20 22 23 27 26 27 25 25 22 22 23 22 23 24 26 27 25 22 19 17 17

GFSMW_925_spd_036.txt.gz
Wind_Speed
13 17 22 25 26 24 23 25 25 25 24 25 24 23 24 21 16 16 13 13 14 16 16 15 14 11 6 4 4 3 3 3 4 1 4 3 6 4 3 5 6 5 7
7 13 20 26 30 31 29 28 29 29 29 30 29 26 24 20 18 14 12 12 15 17 16 15 12 8 5 5 4 3 2 4 4 1 2 3 2 2 3 6 4 10 11
13 12 18 26 31 34 36 34 34 31 31 32 30 23 22 18 18 17 17 17 17 18 16 13 10 9 7 6 6 5 2 4 4 3 1 1 1 4 2 6 4 10 8
9 10 17 22 27 27 30 34 34 32 32 32 33 31 31 23 24 25 22 20 19 18 14 12 11 10 7 6 6 5 7 10 7 4 2 4 3 2 4 4 9 12 13
14 13 18 27 30 31 31 33 35 37 34 35 36 34 28 27 21 25 24 23 20 16 15 13 12 9 7 5 5 7 9 6 3 0 3 5 6 8 6 3 5 10 13
13 13 19 19 24 30 31 34 34 36 36 38 38 36 33 25 21 28 27 23 22 19 16 14 9 4 4 6 6 9 6 2 1 4 6 7 5 5 8 5 9 9 15
13 10 11 17 22 28 30 32 31 29 31 34 36 37 31 26 28 33 33 29 26 23 20 14 10 2 5 6 5 4 3 4 7 8 8 9 11 12 14 14 10 5 12
11 13 14 21 25 28 29 29 32 33 36 35 34 34 33 29 30 34 36 33 29 26 23 16 4 9 5 3 2 4 4 6 7 8 10 11 13 15 17 15 7 4 8
12 15 12 22 23 27 31 34 32 36 34 37 39 37 33 33 35 36 35 33 29 27 24 12 5 6 3 3 2 4 5 7 7 8 11 13 13 14 15 15 13 7 4
7 6 8 17 22 25 30 30 33 39 39 36 37 34 32 34 35 35 36 34 31 28 20 11 11 8 8 4 4 5 8 10 10 12 13 13 13 13 13 11 12 13 10
7 7 7 16 22 24 27 33 35 33 33 32 30 32 32 31 29 31 36 34 32 27 16 16 13 14 9 9 8 9 10 11 11 13 14 13 12 11 12 12 11 12 13
7 6 6 11 19 26 27 28 30 30 32 28 27 27 28 25 26 32 35 35 33 23 18 16 17 14 10 10 10 13 13 12 13 14 15 13 11 13 13 14 13 14 16
7 6 6 10 14 14 17 24 25 25 26 25 24 25 27 28 31 33 35 32 28 18 20 17 16 13 11 10 14 16 15 15 15 16 16 15 14 14 14 15 16 17 16
7 6 6 6 9 12 16 20 22 23 25 24 26 28 29 26 25 24 24 24 19 20 22 17 14 10 5 14 20 19 19 19 18 17 17 17 17 17 16 16 16 16 16
4 4 4 4 8 11 11 14 18 18 19 19 22 23 23 22 21 19 20 18 16 15 10 5 4 4 14 19 21 23 22 21 19 18 18 18 19 17 16 16 16 16 16
6 4 3 1 4 10 14 16 17 18 17 20 21 16 15 12 13 15 17 16 19 17 10 4 6 13 16 19 19 18 21 22 22 20 19 19 18 17 16 15 15 15 16
8 9 9 11 11 2 8 10 10 12 13 12 12 11 11 13 16 19 19 17 13 8 3 2 11 13 15 20 19 19 20 23 24 22 22 21 20 17 16 15 16 16 15
9 8 10 14 18 15 14 13 12 14 17 17 17 18 21 24 21 16 14 9 7 8 9 8 10 17 18 15 17 18 19 22 25 25 23 23 21 19 18 16 18 19 17
6 9 15 17 18 18 17 20 22 23 24 23 24 24 22 19 14 10 7 4 10 11 9 10 17 16 19 20 19 19 19 21 24 25 24 24 23 21 18 18 20 20 19
14 16 18 20 21 18 20 25 25 26 26 25 22 16 12 7 4 1 6 7 9 11 14 17 15 18 19 14 13 16 19 22 25 26 26 25 26 23 20 20 20 21 21
16 19 22 22 21 21 26 27 25 22 17 13 10 6 3 3 6 5 6 10 12 15 17 16 20 21 18 19 17 16 18 21 25 28 27 27 29 27 24 22 22 23 17
16 19 22 23 21 22 25 22 18 11 9 8 8 7 4 2 5 8 9 11 14 15 18 21 25 23 22 21 20 19 19 20 22 27 29 30 28 28 29 25 24 20 18
19 21 23 24 21 18 19 21 14 12 10 9 8 7 7 7 8 10 12 14 16 18 22 24 27 30 28 23 20 23 22 20 22 26 27 28 29 29 28 29 25 22 21
19 22 24 21 21 19 18 15 12 10 10 10 11 11 12 12 13 14 15 17 20 23 25 26 25 30 33 31 27 26 22 20 21 24 27 29 27 26 27 29 27 26 25
18 18 18 19 19 18 19 17 14 11 12 11 12 13 14 15 17 17 18 20 21 21 24 24 27 25 29 31 34 33 29 25 25 22 21 23 24 22 23 27 28 29 26
18 19 19 21 20 19 18 16 15 14 13 14 14 15 17 18 19 21 23 21 20 21 23 25 26 32 31 35 36 36 35 30 26 20 19 20 20 21 22 24 26 29 28

GFSMW_925_spd_042.txt.gz
Wind_Speed
17 21 22 25 26 25 25 26 24 20 18 16 17 15 16 17 15 13 13 13 13 14 15 14 14 14 12 11 10 8 5 3 1 3 6 7 8 8 8 7 6 5 5
14 20 23 25 25 27 28 28 28 24 21 18 17 15 16 16 15 14 13 14 14 16 15 16 15 14 13 12 10 8 5 3 2 3 7 5 7 9 10 9 8 8 7
16 16 23 26 26 28 28 27 26 24 22 20 17 16 15 13 16 16 15 15 15 17 17 16 16 16 14 13 11 10 8 5 4 5 6 4 7 4 9 10 8 7 8
15 16 20 25 27 26 25 25 24 24 22 22 20 21 20 18 19 17 15 15 17 18 17 18 18 18 16 15 14 12 10 7 9 11 13 12 8 5 5 8 10 8 9
18 19 22 26 26 25 26 26 26 25 24 24 23 22 22 19 16 16 16 16 16 17 18 19 19 19 17 16 14 13 11 11 14 11 8 9 9 8 7 8 9 9 10
18 18 22 23 24 26 27 27 28 28 26 21 21 21 21 21 16 19 19 19 19 19 19 19 19 17 15 15 14 12 11 12 11 10 10 10 9 9 10 9 12 12 13
19 19 20 24 25 28 28 29 29 30 27 29 25 29 25 22 24 23 24 24 22 21 22 23 20 18 16 15 13 13 11 11 11 10 10 10 10 9 10 11 13 12 12
17 20 19 23 24 26 28 28 29 28 29 28 29 21 22 25 23 24 22 23 26 24 27 26 23 19 16 15 12 13 10 10 9 9 10 10 9 9 10 11 12 9 14
12 15 18 23 23 22 25 27 26 26 26 27 25 22 24 23 22 22 21 21 27 27 26 28 24 20 19 15 13 8 11 10 9 9 9 11 10 10 10 10 12 13 10
3 6 8 12 16 19 20 21 23 24 23 23 23 19 18 19 19 20 22 24 24 25 22 24 22 18 19 17 15 11 12 7 7 9 10 10 11 12 11 13 14 14 16
1 3 5 7 10 13 15 17 18 18 19 19 20 17 17 17 17 19 19 20 22 25 26 26 23 22 22 19 14 12 9 8 11 12 12 12 12 13 14 14 15 16 16
3 2 5 7 8 9 10 11 12 14 15 15 16 15 13 11 13 14 14 14 17 24 21 23 23 24 18 15 17 13 9 7 13 15 16 16 15 15 16 17 17 18 18
3 3 5 6 9 9 9 10 9 10 10 11 10 10 9 9 10 13 14 16 18 19 18 19 17 13 12 15 13 10 7 17 16 18 19 20 20 19 18 18 19 18 19
5 4 6 5 6 8 9 9 9 9 9 8 7 7 7 8 8 8 9 12 12 14 17 18 16 15 13 13 8 11 20 20 19 20 22 23 23 22 20 21 20 19 20
5 4 5 6 8 9 9 9 9 9 8 8 7 6 6 6 6 6 7 8 10 12 15 15 18 15 14 12 16 17 18 19 20 21 22 23 25 25 24 23 21 19 20
6 7 7 8 9 10 12 11 11 10 9 9 10 9 9 9 9 9 9 10 12 14 18 14 14 15 15 15 19 23 22 19 22 23 22 22 24 26 29 28 26 24 21
10 10 10 10 12 12 13 14 14 13 13 13 12 11 11 11 12 12 13 14 13 13 13 13 13 14 15 21 22 24 17 20 22 22 23 23 23 22 24 24 25 27 27
11 10 11 13 15 16 17 17 16 16 16 15 14 13 13 14 13 13 12 11 10 8 8 9 11 13 13 18 18 17 18 21 23 23 23 24 25 25 24 24 25 23 24
9 11 12 14 16 18 18 20 19 18 18 17 16 16 15 14 12 10 8 5 4 4 5 6 11 14 15 13 17 16 18 21 22 22 23 23 24 25 25 25 27 26 26
13 14 15 16 18 17 18 20 19 19 19 18 17 14 12 10 8 5 3 1 2 3 4 6 9 12 14 15 17 19 19 22 24 24 24 23 24 26 26 26 26 28 28
15 15 15 17 18 18 20 21 20 19 17 15 14 12 11 10 7 5 3 2 3 4 6 8 10 11 13 16 18 21 19 21 25 27 27 26 24 26 27 27 28 30 27
16 16 17 18 17 17 19 20 19 16 15 15 13 10 9 7 5 4 4 4 5 6 8 10 12 12 13 15 17 20 24 24 24 28 29 30 29 29 30 26 26 29 30
18 18 20 19 17 16 16 19 17 16 15 13 11 10 8 6 5 5 5 5 6 7 10 11 13 14 15 17 20 21 24 26 28 28 30 33 32 35 34 31 28 25 23
19 20 21 19 18 16 16 17 15 14 13 12 10 8 7 5 5 4 4 5 7 8 10 12 13 15 16 17 18 23 27 29 31 30 29 30 33 31 31 26 23 24 25
21 21 20 19 18 17 16 14 12 12 12 10 8 7 6 5 4 5 4 5 5 6 8 10 12 14 15 15 21 22 26 29 33 34 30 29 27 25 23 21 19 19 20
22 21 20 21 19 17 16 13 10 10 10 9 7 6 5 5 4 4 2 6 6 7 5 7 10 11 13 21 23 23 26 30 31 23 22 24 25 25 25 19 13 14 15

GFSMW_925_spd_045.txt.gz
Wind_Speed
18 18 25 27 23 26 28 26 26 27 18 18 19 18 18 19 18 17 16 15 15 14 15 14 14 14 13 13 12 11 9 7 5 6 9 9 10 9 9 9 9 7 7
20 23 26 28 27 28 27 27 28 27 24 19 19 18 18 20 19 18 16 16 16 17 17 16 15 16 15 15 15 14 11 8 7 5 6 4 5 13 13 12 11 9 9
19 20 25 26 28 29 29 29 29 27 25 22 19 16 15 16 19 19 19 19 20 19 19 18 17 16 16 17 16 15 14 12 9 7 2 3 5 13 11 14 12 10 10
19 20 23 27 28 29 28 28 29 28 25 23 20 20 20 21 19 18 19 18 20 18 20 18 17 17 17 17 17 15 13 11 9 5 8 11 10 4 5 10 13 12 12
19 21 23 29 30 30 30 29 29 29 28 27 25 21 19 17 17 20 18 19 18 20 19 18 19 18 18 16 15 13 12 10 6 9 10 9 10 12 11 9 10 12 11
20 20 27 29 30 31 31 30 30 30 29 28 25 21 19 20 20 15 18 18 19 18 20 22 21 21 20 17 15 14 13 10 7 9 11 11 10 12 13 10 14 13 15
18 20 21 24 29 31 31 31 32 33 32 28 26 28 27 24 24 23 20 16 17 19 21 23 22 22 22 17 15 16 16 11 9 7 10 10 11 13 13 14 15 13 15
20 20 22 26 29 30 32 32 32 32 31 29 31 29 30 31 23 23 27 28 25 23 20 24 27 25 21 20 18 19 15 10 6 9 7 11 11 12 14 14 15 9 14
15 22 22 27 27 29 29 30 28 29 28 28 31 32 31 22 20 19 24 26 24 21 24 30 28 25 23 21 16 16 12 9 8 7 7 11 14 15 15 15 15 13 9
4 10 14 23 27 26 24 27 27 26 24 22 28 32 26 18 18 18 21 25 21 22 25 29 29 27 21 19 17 13 11 9 8 3 8 14 17 15 16 16 16 16 17
7 5 7 10 14 17 21 23 24 25 29 29 24 26 19 16 18 18 18 20 20 21 21 20 22 22 20 17 15 13 13 13 5 6 13 16 18 19 17 16 17 18 18
1 6 7 9 11 13 15 19 20 22 22 30 23 24 18 15 15 17 18 19 18 20 20 22 24 19 19 19 16 13 12 10 4 12 14 20 20 20 19 17 19 20 19
4 5 6 8 11 13 15 15 17 17 17 17 22 20 16 14 12 13 15 15 17 17 17 18 19 21 16 17 15 14 15 11 18 15 17 20 22 22 21 22 22 21 22
7 7 8 9 12 12 12 13 12 12 12 13 12 12 11 9 9 8 9 10 11 11 13 16 18 17 20 16 17 15 16 19 14 17 20 22 23 24 26 26 25 23 24
7 7 9 9 12 12 12 14 12 13 13 12 12 11 9 10 10 10 9 9 9 11 13 14 14 16 17 21 20 17 16 13 14 21 22 23 24 25 27 28 26 24 24
6 6 7 9 10 12 13 14 14 13 12 14 13 13 12 12 11 11 11 11 11 11 14 13 15 17 13 14 15 14 9 17 18 24 22 23 24 26 29 32 34 37 29
8 9 9 9 11 13 14 15 15 16 16 17 16 15 14 14 13 12 12 11 10 11 10 9 9 8 7 9 12 16 18 20 23 21 22 24 25 26 26 27 30 30 33
10 11 11 14 16 17 18 18 18 18 18 18 17 16 15 15 14 13 13 11 10 9 7 5 3 4 6 9 13 15 16 17 19 21 24 25 26 26 27 27 28 29 28
13 14 16 17 18 18 18 19 18 18 18 18 17 16 16 15 14 13 11 9 8 7 5 5 4 7 10 11 9 10 13 17 21 23 24 26 28 28 29 28 27 31 33
15 17 17 18 18 18 18 19 19 18 18 18 17 15 14 12 11 10 8 4 4 4 3 2 3 4 8 9 9 9 14 19 22 23 26 28 29 31 32 30 26 27 31
17 18 18 17 18 18 19 19 19 18 18 17 16 14 11 10 9 9 7 5 4 2 1 2 4 6 6 8 6 8 11 16 21 24 26 28 31 32 32 27 28 28 30
19 18 18 18 19 19 19 19 18 18 17 16 14 13 11 9 8 7 5 3 2 1 2 3 5 5 6 8 11 12 12 16 20 24 27 29 32 36 39 38 37 34 32
21 20 19 19 18 17 18 19 19 18 16 15 14 12 10 8 6 4 3 2 2 3 4 5 6 7 7 8 11 15 19 20 21 24 29 36 38 37 34 32 31 33 31
21 21 21 20 19 18 16 17 17 16 16 14 13 11 9 7 5 4 3 3 3 3 4 5 7 9 10 10 13 17 20 21 23 26 32 37 36 33 33 33 30 26 25
21 21 20 20 19 18 18 17 16 16 15 13 11 9 7 5 5 5 5 5 5 4 3 4 5 7 8 10 15 18 20 22 26 29 29 26 23 24 26 26 25 24 22
22 21 21 21 20 19 17 15 14 14 14 13 9 7 6 5 4 3 5 3 2 5 3 4 5 6 6 13 17 18 19 23 22 23 20 22 23 23 26 25 30 24 21

GFSMW_925_spd_048.txt.gz
Wind_Speed
20 21 27 31 27 31 28 29 31 32 31 28 29 27 24 21 26 23 26 26 25 22 21 20 20 17 16 16 17 14 12 13 7 7 11 17 20 16 14 12 11 9 10
17 20 29 31 32 34 34 33 33 33 33 32 33 25 24 24 25 24 25 21 21 21 21 22 21 19 18 18 17 17 15 15 15 7 4 2 4 16 16 15 16 14 12
20 18 24 28 31 33 35 35 36 35 34 28 27 24 24 23 25 23 20 23 20 20 20 21 18 19 20 19 20 20 18 18 13 12 4 1 3 3 16 19 16 12 14
21 20 25 31 34 35 37 35 33 34 36 33 29 24 22 20 23 22 22 25 23 22 21 22 21 18 20 17 21 20 22 17 12 14 11 8 4 0 4 10 19 18 14
20 23 23 30 36 34 37 36 37 38 35 30 26 29 23 22 24 30 27 26 21 20 23 20 21 22 19 19 19 21 21 16 11 9 5 7 8 11 9 4 9 15 19
21 21 30 30 30 32 33 37 36 36 33 35 32 24 22 22 19 22 29 25 20 20 24 23 22 23 22 22 21 21 19 16 16 10 10 8 4 6 5 3 6 9 12
18 19 22 24 30 32 35 32 32 29 30 33 36 32 20 23 26 21 14 17 10 14 23 24 23 25 22 21 17 17 18 18 13 10 8 4 6 4 7 12 10 10 18
17 19 20 27 30 33 34 34 33 34 30 32 29 33 34 31 30 26 26 22 19 35 29 27 25 25 24 21 20 21 18 15 12 12 7 8 8 6 9 11 11 5 11
14 18 19 28 33 35 37 38 34 32 32 35 39 42 37 27 26 22 25 27 25 26 30 24 27 25 25 24 23 22 18 14 12 11 9 6 8 11 16 17 17 12 2
4 8 17 22 31 36 41 42 41 38 36 34 37 40 39 35 23 17 18 20 22 25 27 28 27 27 24 24 25 22 17 14 12 10 7 4 13 13 16 16 17 17 17
7 2 5 4 23 30 39 42 37 33 29 29 29 27 30 26 20 18 16 18 20 27 26 24 22 24 25 26 25 17 16 16 14 8 1 11 19 18 17 19 19 21 19
1 8 2 2 4 3 8 31 30 29 27 30 29 29 29 22 19 19 18 18 23 23 21 17 18 22 26 25 20 19 17 19 16 13 13 16 14 18 20 20 23 23 24
6 6 8 5 5 3 5 10 16 16 19 26 27 23 25 19 19 18 17 18 18 15 14 18 21 22 22 20 14 16 21 21 17 17 15 16 17 21 22 24 23 23 26
8 5 9 7 10 12 10 10 11 12 13 22 20 24 21 18 14 14 14 14 15 16 19 16 18 20 20 19 19 23 23 22 19 16 16 19 19 23 24 25 26 28 30
4 5 6 10 13 11 13 13 14 12 18 25 23 20 16 13 11 10 10 10 11 12 14 16 18 20 17 18 22 21 21 18 15 17 19 21 28 24 26 28 29 28 29
6 6 6 12 14 16 16 16 16 13 15 24 23 23 21 18 15 16 16 16 14 15 16 16 16 16 18 18 15 13 11 13 14 17 23 26 21 24 24 25 28 31 35
5 4 5 9 16 15 20 17 17 16 18 18 19 19 19 18 16 17 16 17 16 16 13 12 12 12 9 7 9 9 13 15 18 20 20 21 20 24 27 28 28 29 30
8 5 5 11 18 19 19 20 19 19 20 20 19 18 18 18 17 17 17 15 15 13 12 10 7 7 9 7 7 8 10 11 13 16 18 21 24 24 25 29 33 33 31
8 8 10 13 17 20 22 21 22 21 21 21 20 19 19 20 19 18 17 15 14 12 13 11 6 4 3 5 4 5 5 9 12 15 17 20 23 22 24 33 31 30 32
14 15 17 18 19 20 22 22 22 22 20 21 21 20 19 19 18 17 15 14 13 10 8 7 7 6 3 8 4 2 3 6 12 18 23 25 27 27 27 29 26 27 29
17 20 19 18 20 22 23 21 20 19 21 21 20 19 19 18 16 14 13 13 11 13 10 7 6 4 3 6 2 5 7 11 16 18 19 21 24 30 35 36 39 35 34
19 22 19 19 21 21 21 21 20 22 22 21 20 18 18 16 17 15 12 11 11 10 9 8 6 6 6 3 4 5 8 13 16 18 21 24 29 37 36 34 34 34 34
19 21 20 19 19 20 20 21 21 22 21 20 19 18 16 15 14 14 11 11 11 9 9 6 5 5 5 3 7 11 14 15 16 19 22 29 31 31 35 35 35 32 30
18 20 21 19 17 18 19 20 20 20 19 19 18 17 16 14 12 12 9 11 10 8 6 4 4 4 3 6 10 15 18 18 20 22 26 26 25 23 27 26 27 26 25
19 20 19 18 19 20 21 21 20 20 19 19 16 14 14 14 13 14 12 8 8 6 5 6 5 3 2 5 11 14 17 18 20 22 23 22 19 21 23 26 26 28 29
19 18 18 19 19 19 19 18 18 18 19 18 17 15 13 11 13 12 10 7 5 5 3 3 2 1 2 8 13 14 15 18 15 18 18 18 19 20 22 24 26 27 29